[[{"header":{"parameterUnit":"m.s-1","parameterCategory":1,"la1":30.2991,"la2":30.254,"lo1":-89.0895,"lo2":-89.0444,"dy":0.0017,"dx":0.0017,"nx":28,"ny":28,"refTime":"2025-03-31T21:00:00:Z","depth":0,"parameterNumber":2,"parameterNumberName":"U-component_of_WINDS"},"data":[0,0,0,0,0,0,0,0,0,0,0,0,0,0,0,0,0,0,0,0,0,0,0,0,0,0,0,0,0,0,0,0,0,0,0,0,0,0,0,0,0,0,0,0,0,0,0,0,0,0,0,0,0,0,0,0,0,0,1.1365,1.1366,0,1.1472,1.1473,1.1474,1.1604,1.1606,1.1608,1.161,1.1718,1.1719,1.172,0,0,0,0,0,0,0,0,0,0,0,0,0,1.1274,1.1275,1.1365,1.1366,1.1368,1.1472,1.1473,1.1475,1.1604,1.1606,1.1609,1.1611,1.1718,1.1719,1.172,0,0,0,0,0,0,0,0,0,0,0,0,0,1.134,1.1275,1.1365,1.1445,1.1453,1.1471,1.1473,1.1475,1.1603,1.1606,1.1609,1.1612,1.1718,1.1719,1.1721,1.1669,0,0,1.1725,1.1726,0,0,0,0,0,0,0,0,1.1336,1.1344,1.1432,1.1439,1.1448,1.1528,1.1481,1.154,1.1602,1.1546,1.161,1.1613,1.1652,1.166,1.1673,1.1674,1.1679,1.1725,1.1726,1.1727,1.1727,0,0,0,0,0,0,0,1.1332,1.134,1.1407,1.1433,1.1443,1.1476,1.1488,1.1493,1.1581,1.1551,1.1561,1.1572,1.1658,1.1671,1.1676,1.168,1.1725,1.1727,1.1728,1.1728,1.1648,1.1645,0,0,0,0,0,0,1.1315,1.1335,1.1404,1.1411,1.1399,1.1475,1.1489,1.1499,1.1581,1.1597,1.1569,1.1577,1.1667,1.1674,1.1681,1.1627,1.1727,1.1728,1.1729,1.1651,1.1647,1.1644,0,0,0,0,0,0,1.1313,1.132,1.14,1.1376,1.1388,1.1473,1.1483,1.15,1.1513,1.1595,1.1611,1.1566,1.167,1.1679,1.1672,1.1633,1.1729,1.173,1.1654,1.1649,1.1645,1.1519,0,0,0,0,0,0,1.1309,1.1318,1.1299,1.1374,1.1389,1.1388,1.1481,1.15,1.1516,1.1528,1.1597,1.1611,1.1673,1.1669,1.1673,1.1637,1.1732,1.1658,1.1652,1.1647,1.1527,1.1511,1.1497,0,0,0,0,0,1.1306,1.1259,1.1297,1.1305,1.1367,1.1385,1.1394,1.1466,1.1512,1.1494,1.1547,1.1609,1.1636,1.1667,1.1673,1.1636,1.1661,1.1654,1.1647,1.1534,1.1514,1.1497,0,0,0,0,0,0,1.1176,1.127,1.1314,1.129,1.1329,1.1407,1.1387,1.1442,1.1469,1.1479,1.1568,1.1582,1.1565,1.16,1.1632,1.1592,1.1658,1.1652,1.157,1.1551,1.1536,1.1528,1.1733,0,0,0,0,0,1.1145,1.1152,1.1234,1.1204,1.1222,1.13,1.1311,1.1364,1.1408,1.1425,1.1477,1.1517,1.1536,1.1545,1.1566,1.1533,1.1551,1.1511,1.1496,1.1483,1.1477,1.1464,1.1447,1.1621,1.1621,1.1621,0,0,1.108,1.1132,1.1131,1.118,1.1216,1.1223,1.1313,1.1316,1.1321,1.1425,1.1422,1.1462,1.1513,1.1493,1.1487,1.1522,1.1433,1.1474,1.1463,1.1464,1.1455,1.1438,1.1424,1.1616,1.1617,1.1618,0,0,1.0965,1.1005,1.0986,1.1021,1.1075,1.1128,1.1123,1.1194,1.1225,1.1223,1.1302,1.131,1.1339,1.1373,1.1394,1.1294,1.1353,1.1298,1.1219,1.1205,1.1192,1.118,1.1146,1.1132,1.1292,1.1291,1.1291,0,1.0878,1.089,1.0969,1.0967,1.0987,1.1082,1.1064,1.1094,1.1152,1.1163,1.1202,1.1242,1.1283,1.1273,1.1249,1.1262,1.126,1.1291,1.1187,1.1176,1.1167,1.1135,1.1122,1.1285,1.1285,1.1286,1.1287,0,1.0781,1.0788,1.0766,1.0821,1.0838,1.0828,1.0906,1.0914,1.0965,1.1014,1.1013,1.1065,1.1099,1.1101,1.1151,1.1099,1.1119,1.1171,1.1239,1.1142,1.1114,1.1102,1.1275,1.1277,1.1279,1.1281,0,0,1.0587,1.0686,1.0677,1.0704,1.0772,1.0779,1.0774,1.0808,1.0814,1.0851,1.085,1.0873,1.0922,1.0946,1.1,1.0988,1.0907,1.1042,1.1045,1.1016,1.0855,1.0816,1.0801,1.0947,1.0945,1.0943,1.0852,0,1.0485,1.0482,1.0553,1.053,1.0539,1.0631,1.0626,1.0668,1.0714,1.0728,1.078,1.0795,1.0858,1.0873,1.0865,1.0919,1.0876,1.0926,1.0947,1.0947,1.0932,1.0786,1.0744,1.0655,1.0841,1.0839,1.0838,0,1.0366,1.0398,1.0375,1.0446,1.0453,1.0447,1.0486,1.0498,1.0547,1.0582,1.0609,1.0672,1.0673,1.0737,1.074,1.0772,1.0786,1.0813,1.0812,1.0817,1.0886,1.0788,1.0628,1.0614,1.0821,1.0822,1.0823,0,1.0228,1.0265,1.0257,1.0277,1.0359,1.0353,1.0387,1.044,1.0456,1.049,1.0502,1.0534,1.0552,1.0576,1.0647,1.0687,1.0642,1.0712,1.0672,1.067,1.0658,1.0658,1.0499,1.0665,1.0665,1.0666,1.0666,0,1.0108,1.0091,1.0197,1.0192,1.0176,1.0259,1.0242,1.0284,1.0331,1.0337,1.0417,1.0421,1.0514,1.0528,1.0583,1.0578,1.0586,1.0614,1.0629,1.0607,1.0604,1.0617,1.0625,1.0662,1.0663,1.0664,1.0664,0,0.9951,1.0021,1.0019,1.0097,1.0116,1.0101,1.0169,1.0168,1.022,1.0226,1.0232,1.0313,1.0335,1.0407,1.0447,1.0484,1.0462,1.049,1.0445,1.0455,1.0411,1.0415,1.0256,1.024,1.0414,1.0413,1.0411,0,0.9869,0.9859,0.9936,0.9946,0.9977,0.9991,1.0009,1.0091,1.0106,1.0163,1.0155,1.0183,1.021,1.024,1.0303,1.0334,1.0364,1.0306,1.0369,1.0348,1.0365,1.0364,1.0365,1.0292,1.029,1.0288,1.0287,0,0.9718,0.9754,0.9776,0.9811,0.983,0.9861,0.9897,0.9901,0.9992,1.0005,1.0028,1.0049,1.009,1.0117,1.0159,1.0195,1.0256,1.0266,1.0259,1.0237,1.0212,1.0226,1.0409,1.027,1.0271,1.0273,1.0274,1.0274,0.9598,0.9593,0.9647,0.967,0.9706,0.9738,0.9742,0.9795,0.9815,0.9855,0.9902,0.992,0.9972,1.0034,1.0066,1.0082,1.0115,1.0103,1.0101,1.0097,1.0087,1.0208,1.0089,1.009,1.009,1.0091,1.0091,0,0.9452,0.9491,0.9511,0.956,0.9578,0.9634,0.9678,0.9689,0.9704,0.9747,0.9772,0.98,0.9827,0.9893,0.9927,0.9927,0.9956,0.9933,0.9934,0.9942,1.0055,1.0058,0.9909,0.9909,0.9909,0.9909,0.9909,0.9909,0.9378,0.9374,0.9416,0.9431,0.9472,0.949,0.951,0.9541,0.9576,0.9603,0.9626,0.9669,0.9722,0.976,0.9788,0.9807,0.9816,0.9784,0.9812,0.9916,0.9933,0.995,0.9954,0.9785,0.9785,0.9698,0.9697,0.9696]},{"header":{"parameterUnit":"m.s-1","parameterCategory":1,"la1":30.2991,"la2":30.254,"lo1":-89.0895,"lo2":-89.0444,"dy":0.0017,"dx":0.0017,"nx":28,"ny":28,"refTime":"2025-03-31T21:00:00:Z","depth":0,"parameterNumber":3,"parameterNumberName":"V-component_of_WINDS"},"data":[0,0,0,0,0,0,0,0,0,0,0,0,0,0,0,0,0,0,0,0,0,0,0,0,0,0,0,0,0,0,0,0,0,0,0,0,0,0,0,0,0,0,0,0,0,0,0,0,0,0,0,0,0,0,0,0,0,0,5.1293,5.1294,0,5.1377,5.1378,5.1379,5.1384,5.1383,5.1382,5.1381,5.146,5.1463,5.1466,0,0,0,0,0,0,0,0,0,0,0,0,0,5.1134,5.1136,5.1293,5.1294,5.1295,5.1377,5.1378,5.1379,5.1384,5.1383,5.1382,5.1381,5.1459,5.1463,5.1467,0,0,0,0,0,0,0,0,0,0,0,0,0,5.1208,5.1137,5.1293,5.1308,5.131,5.1376,5.1378,5.1379,5.1385,5.1383,5.1382,5.138,5.1458,5.1463,5.1467,5.1522,0,0,5.1481,5.1482,0,0,0,0,0,0,0,0,5.1204,5.1214,5.1305,5.1307,5.131,5.1369,5.135,5.1427,5.1385,5.1356,5.1381,5.138,5.1431,5.1437,5.1456,5.1526,5.1529,5.1481,5.1484,5.1486,5.1487,0,0,0,0,0,0,0,5.1199,5.1211,5.1326,5.1306,5.1309,5.1309,5.1318,5.1365,5.14,5.1358,5.1359,5.1369,5.1432,5.1451,5.1458,5.153,5.1481,5.1485,5.1488,5.1489,5.1651,5.1652,0,0,0,0,0,0,5.1192,5.1206,5.1323,5.1329,5.1253,5.1313,5.1323,5.1351,5.1399,5.1406,5.137,5.1369,5.1445,5.1452,5.146,5.153,5.1486,5.149,5.1492,5.1649,5.1651,5.1653,0,0,0,0,0,0,5.1188,5.1202,5.132,5.1268,5.1283,5.1317,5.1348,5.1353,5.1373,5.1408,5.1414,5.1385,5.1444,5.1454,5.1507,5.1532,5.1492,5.1496,5.1647,5.165,5.1652,5.1667,0,0,0,0,0,0,5.1184,5.1201,5.1223,5.1268,5.1286,5.1367,5.135,5.1356,5.1382,5.1381,5.1423,5.1429,5.1443,5.1501,5.1512,5.1538,5.1499,5.1645,5.1648,5.1651,5.1665,5.167,5.1674,0,0,0,0,0,5.1178,5.1222,5.1224,5.1238,5.1315,5.1369,5.1378,5.1396,5.1384,5.1406,5.1429,5.1427,5.1528,5.1506,5.1519,5.1546,5.1644,5.1648,5.1651,5.1662,5.1669,5.1674,0,0,0,0,0,0,5.1176,5.1228,5.1231,5.1292,5.1326,5.137,5.1398,5.1402,5.1439,5.1436,5.1455,5.1464,5.1517,5.1537,5.1512,5.1603,5.1584,5.159,5.1588,5.1595,5.16,5.1594,5.1503,0,0,0,0,0,5.1184,5.1225,5.1267,5.1317,5.1334,5.1363,5.1387,5.1399,5.1434,5.1448,5.1474,5.1507,5.1546,5.1571,5.1609,5.1667,5.1677,5.1692,5.1697,5.1701,5.1706,5.174,5.1748,5.1665,5.1665,5.1665,0,0,5.1198,5.1232,5.1256,5.1317,5.1345,5.1387,5.1375,5.1419,5.145,5.1453,5.1507,5.1527,5.1565,5.1622,5.1648,5.1639,5.1731,5.1705,5.1708,5.1712,5.1745,5.1753,5.176,5.1668,5.1667,5.1667,0,0,5.1246,5.1275,5.1321,5.135,5.1393,5.1413,5.1423,5.1467,5.1482,5.1536,5.154,5.1576,5.1642,5.167,5.1692,5.1752,5.1753,5.1763,5.1789,5.1822,5.1829,5.1834,5.1857,5.1865,5.1769,5.1769,5.1769,0,5.1258,5.1323,5.1343,5.1388,5.1415,5.1423,5.1469,5.1495,5.1547,5.1565,5.1555,5.1641,5.1666,5.173,5.1745,5.1763,5.1776,5.1759,5.1826,5.1832,5.1838,5.186,5.1869,5.177,5.177,5.177,5.177,0,5.1336,5.1381,5.1412,5.1466,5.1496,5.1541,5.1567,5.1595,5.1603,5.1623,5.1678,5.171,5.1755,5.177,5.1777,5.1836,5.183,5.1823,5.1805,5.1847,5.1868,5.1877,5.1772,5.1771,5.1771,5.1771,0,0,5.1386,5.1452,5.1463,5.1489,5.1538,5.1572,5.1617,5.1663,5.1687,5.1723,5.1761,5.1818,5.1813,5.1839,5.1849,5.1878,5.1925,5.1868,5.1869,5.1879,5.1993,5.1999,5.2009,5.1926,5.1927,5.1929,5.1991,0,5.1441,5.1525,5.1544,5.1615,5.1657,5.1665,5.1705,5.1738,5.1758,5.1795,5.1816,5.1857,5.1846,5.1862,5.1891,5.1914,5.1949,5.1909,5.1961,5.1963,5.1954,5.202,5.2026,5.2083,5.1999,5.2,5.2001,0,5.1516,5.1557,5.1633,5.1679,5.1697,5.1732,5.1778,5.1813,5.1851,5.1863,5.1893,5.1901,5.1948,5.1927,5.1991,5.1963,5.1986,5.2,5.2003,5.2009,5.1986,5.2029,5.2101,5.211,5.2014,5.2013,5.2012,0,5.1547,5.1621,5.1677,5.1697,5.1751,5.1776,5.1799,5.1836,5.1864,5.1902,5.192,5.1962,5.1986,5.2018,5.2037,5.2019,5.21,5.208,5.2111,5.2111,5.2129,5.2128,5.2207,5.2141,5.214,5.214,5.214,0,5.1608,5.1654,5.1692,5.1726,5.1778,5.18,5.185,5.1873,5.1906,5.1944,5.1952,5.1987,5.201,5.2047,5.2062,5.2114,5.2123,5.2135,5.2138,5.2135,5.2134,5.2151,5.2148,5.2143,5.2142,5.2142,5.2141,0,5.1652,5.1678,5.174,5.1787,5.18,5.1836,5.1875,5.1908,5.1929,5.1977,5.1989,5.2021,5.2066,5.2088,5.2143,5.2153,5.2212,5.2212,5.22,5.2202,5.2233,5.2231,5.2327,5.2341,5.2264,5.2265,5.2265,0,5.1689,5.1726,5.1777,5.1805,5.183,5.1873,5.1902,5.1924,5.1953,5.2,5.2028,5.2074,5.2112,5.2184,5.2211,5.2253,5.2255,5.2286,5.2262,5.2258,5.2258,5.2256,5.2261,5.2291,5.2292,5.2292,5.2293,0,5.1754,5.1766,5.1808,5.1856,5.1891,5.1929,5.1966,5.1987,5.2015,5.2047,5.2095,5.2125,5.2183,5.2229,5.2274,5.2296,5.2299,5.23,5.231,5.2308,5.2301,5.2307,5.2214,5.2298,5.2298,5.2297,5.2297,5.2297,5.1797,5.1831,5.1873,5.192,5.1951,5.1986,5.202,5.2046,5.2087,5.2138,5.2148,5.2199,5.2236,5.2298,5.2321,5.2361,5.2353,5.2367,5.2371,5.2375,5.2377,5.2293,5.2368,5.2368,5.2368,5.2368,5.2368,0,5.1864,5.1892,5.1935,5.1989,5.2026,5.2028,5.2069,5.2099,5.2145,5.2181,5.222,5.2275,5.232,5.2351,5.2396,5.2422,5.2425,5.2433,5.2432,5.2437,5.238,5.2368,5.243,5.243,5.243,5.243,5.243,5.243,5.1903,5.1961,5.1978,5.2051,5.2078,5.2131,5.2154,5.2186,5.2215,5.2278,5.2316,5.2337,5.2371,5.2419,5.246,5.2468,5.2485,5.2494,5.2502,5.2448,5.2441,5.2435,5.2424,5.2497,5.2497,5.2556,5.2557,5.2557]}]]